Wind_Speed
24 30 24 26 23 24 23 22 21 19 17 16 15 13 12 13 11 11 10 9 8 6 5 5 8 9 8 9 11 12 14 17 17 10 10 10 6 6 6 5 2 2 3
7 25 33 26 28 25 25 23 24 23 21 20 18 17 16 15 15 14 12 11 11 10 8 7 7 8 7 6 9 11 13 17 20 17 14 12 9 8 5 4 3 3 4
31 11 25 29 29 28 26 23 23 24 26 26 24 23 21 19 17 17 15 14 13 13 12 9 9 9 8 8 9 11 12 14 16 16 15 15 11 9 6 4 5 3 3
24 27 26 20 22 26 27 24 23 23 24 26 28 28 25 23 21 20 19 17 16 15 15 13 10 10 10 10 11 13 13 14 15 14 15 14 11 9 6 6 7 6 4
16 23 28 30 34 32 30 28 26 25 25 26 27 28 29 29 26 24 23 21 20 17 16 15 13 11 12 11 9 9 11 13 14 15 16 15 11 7 6 6 8 9 4
5 9 13 18 23 27 28 27 27 26 25 27 29 29 31 32 30 28 26 22 20 19 18 16 15 14 14 13 12 10 9 10 12 14 14 13 9 7 7 5 4 7 5
4 3 6 11 14 19 21 24 26 26 23 24 25 27 28 28 26 20 35 20 18 20 20 18 18 16 16 15 15 15 14 13 9 4 11 11 7 7 8 7 4 4 4
11 9 6 6 9 11 13 19 24 25 25 24 26 27 27 27 23 24 18 21 22 25 24 18 19 17 19 19 18 17 16 17 16 12 8 8 7 8 10 6 5 5 4
10 9 9 10 9 9 10 14 16 19 23 25 27 27 29 28 26 26 22 29 27 28 25 23 19 18 20 20 19 19 18 18 18 17 15 13 11 12 8 5 5 5 5
7 8 11 12 14 14 12 13 13 16 21 20 23 26 28 28 28 26 22 24 27 30 31 29 23 20 25 24 23 21 20 19 20 21 20 17 17 13 8 4 2 3 4
8 12 12 14 16 15 16 17 17 16 16 17 20 23 27 28 28 25 25 27 28 32 36 33 28 24 30 28 26 23 20 18 21 20 19 21 19 15 11 7 4 1 2
11 16 17 17 17 17 18 17 17 19 21 21 22 23 25 27 27 26 28 26 25 28 32 35 34 28 32 29 27 23 21 20 21 22 22 22 20 15 11 9 9 4 1
12 16 18 19 19 19 18 18 19 21 22 23 24 24 26 28 27 23 22 22 23 27 27 33 31 27 31 30 29 27 26 26 25 25 23 24 20 13 13 14 13 8 3
13 15 18 20 22 22 19 18 20 22 23 24 26 26 24 21 19 19 20 24 22 26 31 35 25 25 32 32 32 32 31 30 29 27 25 22 21 19 15 16 14 9 5
17 20 21 21 23 25 24 22 23 23 22 24 24 26 26 25 22 22 23 23 23 25 28 34 30 30 36 36 37 38 36 33 31 28 27 26 25 22 20 17 14 12 9
22 24 27 29 30 29 27 27 24 23 23 22 22 21 24 24 23 23 23 23 19 18 31 40 36 36 38 42 41 41 40 37 34 31 28 28 27 24 24 20 17 16 13
26 30 32 31 30 26 24 25 26 23 22 22 19 17 18 21 22 23 21 21 19 22 33 44 42 42 37 44 43 44 43 41 35 33 30 30 28 26 27 22 19 17 15
30 29 29 27 24 22 22 24 26 26 27 24 20 23 23 21 23 23 23 24 24 28 33 40 46 45 42 43 45 44 45 42 37 35 33 33 30 29 30 24 22 19 16
26 26 24 24 23 23 24 25 25 24 25 28 32 33 28 26 24 24 25 29 31 33 32 36 38 47 46 43 46 48 47 43 41 35 32 33 31 32 32 25 23 20 17
22 20 22 23 24 24 24 26 28 29 30 31 30 28 26 26 26 25 25 27 31 32 31 29 35 39 45 42 45 49 46 44 42 39 31 30 32 33 32 26 24 22 17
20 21 22 22 24 27 29 31 32 33 34 34 32 29 29 29 30 29 26 26 29 30 27 29 31 37 44 45 46 49 47 45 45 42 36 30 33 35 33 29 25 21 18
24 25 26 28 30 32 34 35 36 37 36 36 35 33 30 32 32 32 32 32 33 34 34 35 36 37 41 43 48 49 49 47 47 46 39 33 38 37 33 29 25 22 19
23 25 27 30 32 35 37 37 38 37 38 37 38 37 34 33 35 35 36 35 35 36 36 37 39 41 44 45 47 44 52 53 53 48 41 40 39 35 30 29 25 23 21
21 22 25 28 32 36 36 36 36 36 36 38 37 38 36 34 32 32 32 34 36 38 38 37 37 41 44 46 47 51 52 54 54 51 44 38 39 34 31 29 27 24 20
22 24 27 32 35 37 39 39 37 37 38 38 35 32 34 33 33 30 30 32 34 37 40 42 43 42 43 42 44 49 48 44 52 52 42 37 38 35 32 29 27 22 22
22 25 29 32 34 37 37 35 34 35 36 34 31 28 28 29 29 27 29 32 34 36 37 32 31 34 37 41 46 47 40 41 46 44 38 39 37 35 32 30 27 24 23
Wind_Direction
246 248 260 247 245 247 246 246 247 250 251 253 253 256 252 250 250 250 247 244 247 253 251 240 239 242 250 240 239 230 225 231 236 227 231 238 233 192 182 185 184 206 235
188 266 253 260 250 251 252 251 249 248 250 254 255 254 250 243 247 248 249 252 255 255 257 252 253 252 249 232 226 233 227 227 234 240 245 223 201 184 171 168 187 213 232
221 229 263 259 252 252 252 254 253 250 250 252 253 255 250 246 244 248 245 244 246 250 251 253 252 245 235 233 231 225 227 228 228 232 230 208 197 189 193 198 205 248 244
242 244 249 253 244 249 252 254 257 259 256 254 252 252 254 248 247 249 246 244 243 246 249 245 242 237 230 227 236 230 228 223 215 210 207 193 189 192 208 220 225 238 245
250 251 254 259 263 262 260 258 260 262 261 257 255 254 254 250 246 246 244 240 238 240 243 245 239 230 222 223 217 213 204 205 198 190 186 178 179 197 211 207 213 216 231
311 292 279 273 270 268 266 264 261 261 266 263 257 257 255 256 254 251 248 247 234 237 238 240 242 230 223 216 210 194 205 212 201 187 183 180 178 190 199 194 207 199 219
34 330 296 277 265 267 263 259 258 261 268 264 261 260 264 264 271 281 276 250 252 239 236 234 238 235 221 213 207 202 206 206 212 203 198 193 196 196 189 170 182 196 214
39 36 24 330 299 284 278 268 264 264 266 268 262 263 265 264 251 276 285 223 256 238 233 233 238 242 228 215 208 208 202 204 207 206 211 217 221 195 165 154 137 117 97
38 22 8 352 341 332 308 284 276 269 265 261 262 264 267 267 263 265 243 239 246 229 226 226 226 238 234 221 213 203 198 202 206 213 206 212 201 176 162 139 114 96 85
12 342 330 324 322 315 306 298 291 277 270 270 267 262 262 266 268 268 259 243 240 225 218 219 212 247 230 224 218 211 200 202 204 199 198 198 184 177 181 171 123 75 60
359 350 328 315 311 307 301 292 290 287 280 274 273 267 264 266 269 271 266 258 246 229 221 215 221 221 224 220 218 213 209 198 201 205 205 196 195 201 194 204 194 121 41
339 350 344 327 311 298 294 295 294 288 282 278 278 276 270 266 265 268 270 268 263 248 239 224 224 232 218 215 215 210 201 199 199 202 202 202 203 206 204 213 211 192 86
316 335 337 338 331 319 292 281 288 291 289 280 275 277 278 279 276 274 265 260 254 245 246 242 233 233 221 217 213 205 198 200 200 203 207 208 209 208 221 225 217 214 235
304 317 321 323 323 321 308 291 289 293 289 282 276 275 277 274 268 270 277 261 251 240 244 230 232 229 219 217 212 206 207 207 210 211 213 214 213 217 221 211 216 214 246
304 312 313 311 312 311 307 302 295 298 296 291 279 271 270 271 270 272 274 272 262 245 238 226 224 219 214 216 213 212 210 209 210 212 215 219 218 217 213 210 214 224 248
305 308 308 306 306 305 299 303 301 300 297 289 281 270 270 271 273 268 263 259 257 259 230 226 224 220 221 216 215 214 216 215 211 209 211 217 221 221 211 216 221 234 251
306 305 303 302 307 308 300 297 306 307 297 289 287 283 280 277 273 271 263 255 258 248 241 228 226 223 224 219 220 219 220 220 216 213 212 219 222 219 213 218 226 235 248
305 301 303 305 301 296 295 294 297 297 291 284 280 280 273 271 273 268 253 256 250 250 244 241 232 232 230 228 226 223 221 221 221 218 215 220 222 220 217 220 225 236 252
298 300 303 300 298 296 297 294 292 294 292 287 286 287 268 267 272 265 254 244 247 248 254 247 242 237 233 236 230 226 224 222 219 214 215 222 222 222 219 222 226 234 243
298 300 303 303 302 302 301 299 297 293 292 290 284 283 273 267 269 266 259 246 243 244 247 245 248 241 234 236 234 230 227 223 216 212 214 217 221 218 217 213 220 231 246
301 304 305 304 301 299 300 299 298 295 292 290 285 283 279 271 265 267 256 247 240 244 249 248 240 236 238 241 234 233 229 224 214 209 209 207 217 211 212 218 228 227 238
305 306 307 309 308 306 304 303 302 299 294 290 287 283 282 268 265 261 258 254 250 252 256 257 253 245 241 243 242 236 229 219 209 204 203 207 209 209 216 224 223 220 228
315 316 318 320 320 316 312 307 303 298 294 291 287 282 277 273 263 259 265 260 256 258 261 258 257 252 244 244 244 240 230 216 206 209 197 204 208 211 214 213 213 213 228
327 331 334 333 335 334 329 321 313 305 298 289 282 279 275 271 270 269 262 255 260 269 268 263 259 251 246 242 243 235 238 227 204 204 194 206 204 204 206 206 208 220 228
334 333 335 341 340 339 334 326 318 314 306 296 290 272 269 268 273 270 266 260 266 271 262 262 259 245 242 240 237 238 234 231 206 200 192 201 201 203 205 205 211 221 227
334 338 344 342 343 341 340 327 320 313 311 299 290 273 273 272 271 273 270 269 274 269 268 256 246 242 236 236 233 229 231 204 194 189 191 193 198 199 204 207 215 220 225
Height
1544 1549 1549 1550 1552 1555 1558 1561 1563 1566 1567 1568 1570 1571 1571 1571 1571 1571 1572 1572 1573 1573 1573 1573 1574 1575 1576 1576 1576 1578 1580 1584 1586 1589 1590 1592 1593 1593 1594 1594 1595 1595 1596
1538 1541 1543 1546 1549 1551 1554 1556 1559 1562 1563 1566 1567 1567 1567 1568 1568 1569 1569 1570 1571 1571 1571 1571 1571 1572 1573 1574 1575 1576 1577 1580 1583 1586 1588 1589 1590 1592 1592 1593 1594 1593 1593
1531 1534 1536 1541 1542 1545 1548 1551 1554 1556 1558 1560 1561 1562 1562 1563 1564 1564 1565 1566 1566 1567 1568 1568 1568 1569 1570 1571 1572 1574 1576 1578 1580 1582 1583 1586 1589 1590 1592 1592 1592 1592 1592
1528 1531 1534 1536 1537 1539 1544 1547 1549 1550 1551 1553 1554 1556 1557 1559 1559 1561 1561 1562 1564 1564 1564 1564 1565 1565 1566 1567 1569 1570 1572 1575 1576 1578 1581 1583 1587 1589 1590 1591 1591 1591 1591
1523 1527 1528 1531 1533 1535 1538 1541 1543 1544 1544 1546 1547 1548 1549 1551 1552 1553 1554 1556 1558 1560 1560 1560 1560 1561 1562 1564 1565 1567 1570 1572 1574 1576 1579 1581 1583 1586 1588 1589 1590 1590 1589
1518 1520 1522 1524 1526 1528 1531 1533 1535 1536 1537 1538 1539 1541 1541 1542 1545 1548 1549 1551 1552 1555 1556 1557 1557 1557 1558 1560 1562 1565 1568 1571 1574 1576 1578 1580 1582 1584 1585 1586 1588 1589 1589
1519 1519 1520 1521 1521 1523 1524 1525 1526 1528 1530 1531 1532 1533 1535 1538 1541 1548 1550 1546 1547 1548 1553 1553 1554 1554 1555 1557 1560 1562 1566 1569 1573 1575 1578 1580 1581 1582 1583 1584 1586 1586 1586
1519 1519 1519 1520 1519 1519 1519 1519 1520 1521 1522 1524 1525 1526 1528 1529 1530 1532 1520 1521 1534 1540 1547 1550 1552 1555 1556 1554 1555 1560 1562 1566 1570 1574 1576 1579 1580 1581 1581 1583 1584 1584 1584
1520 1520 1520 1519 1519 1517 1517 1516 1516 1515 1515 1518 1519 1520 1520 1522 1524 1526 1525 1527 1527 1531 1539 1545 1547 1550 1555 1557 1557 1556 1559 1562 1567 1570 1573 1576 1577 1580 1582 1583 1583 1582 1581
1520 1520 1518 1517 1517 1516 1515 1514 1513 1512 1511 1511 1512 1512 1513 1514 1514 1517 1520 1521 1522 1526 1532 1536 1538 1537 1548 1552 1553 1554 1553 1558 1562 1567 1570 1573 1576 1577 1580 1582 1583 1582 1582
1518 1517 1516 1515 1514 1514 1513 1511 1510 1509 1508 1508 1507 1508 1507 1508 1509 1510 1512 1513 1514 1517 1522 1526 1529 1530 1537 1544 1548 1548 1551 1552 1558 1563 1567 1570 1573 1575 1576 1580 1581 1581 1581
1515 1514 1512 1511 1511 1510 1509 1508 1506 1505 1504 1503 1502 1502 1502 1502 1503 1504 1505 1506 1508 1511 1513 1518 1522 1525 1531 1537 1542 1546 1549 1550 1553 1558 1562 1566 1569 1572 1575 1577 1579 1579 1579
1513 1511 1509 1507 1506 1505 1504 1503 1502 1501 1498 1497 1497 1497 1497 1496 1497 1497 1499 1501 1502 1505 1509 1513 1518 1523 1527 1532 1537 1540 1542 1545 1548 1552 1556 1561 1565 1569 1572 1574 1576 1576 1576
1510 1509 1507 1505 1503 1501 1500 1498 1497 1496 1494 1492 1491 1491 1491 1491 1491 1492 1493 1494 1496 1501 1503 1507 1513 1518 1522 1526 1531 1535 1536 1538 1542 1546 1552 1558 1562 1564 1567 1570 1572 1573 1573
1506 1505 1503 1501 1499 1497 1495 1493 1491 1490 1488 1486 1485 1485 1485 1485 1486 1488 1489 1489 1489 1492 1498 1501 1506 1509 1514 1519 1524 1527 1530 1533 1535 1541 1548 1553 1557 1559 1562 1565 1567 1568 1568
1502 1500 1498 1495 1493 1491 1488 1486 1486 1484 1483 1481 1480 1479 1479 1479 1480 1481 1482 1483 1484 1487 1490 1493 1496 1502 1505 1510 1514 1519 1524 1526 1529 1534 1540 1547 1552 1555 1557 1559 1561 1563 1563
1497 1494 1492 1489 1486 1484 1482 1481 1479 1478 1478 1477 1476 1475 1474 1473 1473 1473 1475 1476 1478 1480 1479 1482 1487 1492 1496 1501 1506 1509 1513 1518 1523 1527 1532 1540 1545 1549 1552 1553 1556 1558 1558
1490 1488 1485 1482 1479 1477 1476 1474 1473 1471 1469 1469 1470 1470 1469 1467 1466 1466 1467 1469 1469 1468 1471 1473 1476 1482 1487 1491 1496 1501 1505 1511 1516 1518 1525 1532 1537 1542 1545 1547 1550 1552 1554
1484 1482 1479 1477 1475 1472 1470 1468 1466 1464 1462 1461 1460 1459 1460 1459 1458 1458 1458 1458 1458 1459 1461 1463 1466 1470 1475 1481 1486 1491 1496 1501 1508 1512 1517 1524 1529 1534 1538 1541 1544 1547 1548
1479 1477 1475 1472 1469 1467 1465 1462 1460 1458 1455 1453 1450 1448 1448 1449 1449 1448 1447 1447 1447 1448 1450 1454 1456 1460 1463 1469 1475 1480 1487 1491 1498 1503 1508 1514 1521 1526 1531 1535 1537 1540 1542
1474 1472 1470 1467 1464 1461 1458 1455 1452 1449 1446 1443 1441 1440 1439 1438 1438 1437 1438 1438 1438 1438 1439 1443 1445 1448 1452 1457 1462 1468 1475 1480 1486 1492 1499 1503 1513 1518 1524 1528 1531 1534 1537
1470 1467 1464 1461 1457 1454 1450 1446 1442 1438 1435 1432 1430 1429 1428 1427 1426 1426 1426 1427 1428 1429 1430 1431 1434 1437 1439 1442 1446 1453 1460 1467 1475 1481 1489 1497 1504 1511 1517 1521 1524 1527 1530
1466 1462 1459 1455 1451 1446 1441 1436 1432 1428 1423 1420 1417 1416 1416 1414 1415 1414 1414 1414 1415 1417 1418 1418 1419 1422 1426 1429 1432 1437 1444 1452 1459 1472 1478 1487 1495 1502 1508 1513 1517 1521 1524
1461 1458 1454 1449 1444 1438 1431 1425 1420 1416 1411 1407 1404 1402 1401 1401 1401 1402 1401 1402 1402 1402 1403 1404 1404 1406 1409 1413 1417 1423 1430 1438 1446 1461 1468 1478 1486 1494 1500 1506 1511 1514 1517
1458 1454 1450 1445 1438 1431 1424 1417 1410 1404 1399 1394 1390 1389 1388 1389 1389 1389 1390 1390 1390 1389 1388 1387 1388 1389 1394 1398 1403 1410 1419 1429 1436 1449 1459 1469 1479 1487 1493 1499 1505 1508 1511
1456 1452 1447 1441 1433 1426 1417 1408 1401 1394 1388 1382 1379 1378 1378 1379 1378 1378 1379 1378 1377 1374 1372 1370 1371 1375 1379 1385 1391 1398 1411 1417 1428 1446 1453 1463 1472 1480 1487 1492 1497 1501 1505